| time (UTC) | temp F | wind direction | speed MPH | gust MPH | rain 1hr in | rain 24hr in | rain mn in | humidity % | barometer mb |
| 20260507113836 | 59 | 216 | 2.0 | 8.0 | 0.00 | 0.08 | 0.02 | 74 | 1020.3 |
| 20260507113317 | 58 | 221 | 4.0 | 8.0 | 0.00 | 0.08 | 0.02 | 75 | 1020.4 |
| 20260507112850 | 59 | 225 | 2.0 | 4.0 | 0.00 | 0.08 | 0.02 | 75 | 1020.3 |
| 20260507112344 | 59 | 157 | 0.0 | 4.0 | 0.00 | 0.08 | 0.02 | 76 | 1020.4 |
| 20260507111855 | 59 | 157 | 1.0 | 5.0 | 0.00 | 0.08 | 0.02 | 77 | 1020.4 |
| 20260507111319 | 59 | 150 | 1.0 | 5.0 | 0.00 | 0.08 | 0.02 | 77 | 1020.5 |
| 20260507110834 | 59 | 109 | 1.0 | 4.0 | 0.00 | 0.08 | 0.02 | 76 | 1020.6 |
| 20260507110320 | 59 | 136 | 1.0 | 3.0 | 0.00 | 0.08 | 0.02 | 76 | 1020.7 |
| 20260507105814 | 58 | 111 | 2.0 | 3.0 | 0.00 | 0.08 | 0.02 | 76 | 1020.7 |
| 20260507105327 | 58 | 142 | 1.0 | 5.0 | 0.00 | 0.08 | 0.02 | 76 | 1020.8 |
| 20260507104832 | 58 | 254 | 2.0 | 5.0 | 0.00 | 0.08 | 0.02 | 76 | 1020.9 |
| 20260507104320 | 58 | 221 | 1.0 | 6.0 | 0.00 | 0.08 | 0.02 | 75 | 1020.8 |
| 20260507103833 | 59 | 206 | 3.0 | 6.0 | 0.00 | 0.08 | 0.02 | 74 | 1020.9 |
| 20260507103349 | 59 | 240 | 3.0 | 6.0 | 0.00 | 0.08 | 0.02 | 74 | 1020.9 |
| 20260507102828 | 59 | 249 | 1.0 | 6.0 | 0.00 | 0.08 | 0.02 | 74 | 1020.9 |
| 20260507102321 | 59 | 250 | 3.0 | 6.0 | 0.00 | 0.08 | 0.02 | 73 | 1021.0 |
| 20260507101837 | 59 | 240 | 2.0 | 9.0 | 0.00 | 0.08 | 0.02 | 74 | 1020.9 |
| 20260507101344 | 58 | 200 | 2.0 | 9.0 | 0.00 | 0.08 | 0.02 | 74 | 1021.0 |
| 20260507100818 | 58 | 178 | 2.0 | 8.0 | 0.00 | 0.08 | 0.02 | 73 | 1021.0 |
| 20260507100324 | 59 | 158 | 3.0 | 8.0 | 0.00 | 0.08 | 0.02 | 74 | 1021.1 |
| 20260507095835 | 58 | 220 | 2.0 | 7.0 | 0.00 | 0.08 | 0.02 | 73 | 1021.1 |
| 20260507095330 | 58 | 179 | 3.0 | 7.0 | 0.00 | 0.08 | 0.02 | 74 | 1021.1 |
| 20260507094816 | 58 | 245 | 2.0 | 6.0 | 0.00 | 0.08 | 0.02 | 74 | 1021.2 |
| 20260507094331 | 58 | 251 | 2.0 | 6.0 | 0.00 | 0.08 | 0.02 | 74 | 1021.2 |
| 20260507093815 | 58 | 229 | 1.0 | 6.0 | 0.00 | 0.08 | 0.02 | 75 | 1021.3 |
| 20260507093331 | 57 | 211 | 3.0 | 6.0 | 0.00 | 0.08 | 0.02 | 75 | 1021.2 |
| 20260507092817 | 57 | 211 | 2.0 | 6.0 | 0.00 | 0.08 | 0.02 | 74 | 1021.3 |
| 20260507092331 | 57 | 175 | 4.0 | 6.0 | 0.00 | 0.08 | 0.02 | 73 | 1021.3 |
| 20260507091847 | 58 | 225 | 2.0 | 7.0 | 0.00 | 0.08 | 0.02 | 74 | 1021.2 |
| 20260507091333 | 58 | 215 | 2.0 | 10.0 | 0.00 | 0.08 | 0.02 | 73 | 1021.2 |
| 20260507090827 | 57 | 202 | 2.0 | 10.0 | 0.00 | 0.08 | 0.02 | 73 | 1021.3 |
| 20260507090333 | 58 | 204 | 3.0 | 6.0 | 0.00 | 0.08 | 0.02 | 73 | 1021.2 |
| 20260507085826 | 57 | 234 | 2.0 | 8.0 | 0.00 | 0.08 | 0.02 | 73 | 1021.2 |
| 20260507085321 | 57 | 228 | 3.0 | 8.0 | 0.00 | 0.08 | 0.02 | 72 | 1021.2 |
| 20260507084818 | 58 | 231 | 2.0 | 5.0 | 0.00 | 0.08 | 0.02 | 74 | 1021.1 |
| 20260507084333 | 57 | 232 | 1.0 | 6.0 | 0.00 | 0.08 | 0.02 | 74 | 1021.1 |
| 20260507083828 | 58 | 219 | 2.0 | 4.0 | 0.00 | 0.08 | 0.02 | 74 | 1021.1 |
| 20260507083314 | 57 | 215 | 2.0 | 6.0 | 0.00 | 0.08 | 0.02 | 73 | 1021.1 |
| 20260507082829 | 57 | 224 | 2.0 | 6.0 | 0.00 | 0.08 | 0.02 | 72 | 1021.0 |
| 20260507082359 | 58 | 226 | 1.0 | 5.0 | 0.00 | 0.08 | 0.02 | 73 | 1021.0 |
| 20260507081822 | 58 | 227 | 3.0 | 7.0 | 0.00 | 0.08 | 0.02 | 72 | 1021.0 |
| 20260507081316 | 58 | 225 | 1.0 | 3.0 | 0.00 | 0.08 | 0.02 | 73 | 1021.1 |
| 20260507080832 | 58 | 216 | 1.0 | 4.0 | 0.00 | 0.08 | 0.02 | 73 | 1021.1 |
| 20260507080333 | 58 | 221 | 2.0 | 4.0 | 0.00 | 0.08 | 0.02 | 72 | 1021.0 |
| 20260507075848 | 58 | 227 | 1.0 | 4.0 | 0.00 | 0.08 | 0.02 | 72 | 1021.0 |
| 20260507075342 | 57 | 156 | 0.0 | 4.0 | 0.00 | 0.08 | 0.02 | 74 | 1021.0 |
| 20260507074816 | 57 | 155 | 2.0 | 6.0 | 0.00 | 0.08 | 0.02 | 73 | 1021.0 |
| 20260507074330 | 57 | 215 | 2.0 | 5.0 | 0.00 | 0.08 | 0.02 | 74 | 1021.0 |
| 20260507073815 | 56 | 192 | 1.0 | 4.0 | 0.00 | 0.08 | 0.02 | 73 | 1021.1 |
| 20260507073402 | 56 | 232 | 1.0 | 4.0 | 0.00 | 0.08 | 0.02 | 74 | 1021.0 |
| 20260507072844 | 56 | 204 | 2.0 | 4.0 | 0.00 | 0.08 | 0.02 | 73 | 1021.1 |
| 20260507072318 | 56 | 201 | 2.0 | 6.0 | 0.00 | 0.08 | 0.02 | 73 | 1021.1 |
| 20260507071824 | 56 | 229 | 2.0 | 7.0 | 0.00 | 0.08 | 0.02 | 74 | 1021.1 |
| 20260507071337 | 56 | 205 | 1.0 | 7.0 | 0.00 | 0.08 | 0.02 | 74 | 1021.2 |
| 20260507070826 | 56 | 232 | 4.0 | 6.0 | 0.04 | 0.08 | 0.02 | 72 | 1021.1 |
| 20260507070333 | 56 | 229 | 3.0 | 5.0 | 0.04 | 0.08 | 0.02 | 73 | 1021.1 |
| 20260507065827 | 56 | 190 | 2.0 | 5.0 | 0.04 | 0.08 | 0.02 | 73 | 1021.2 |
| 20260507065341 | 55 | 217 | 1.0 | 5.0 | 0.04 | 0.08 | 0.02 | 72 | 1021.1 |
| 20260507064847 | 55 | 199 | 1.0 | 5.0 | 0.04 | 0.08 | 0.02 | 73 | 1021.2 |
| 20260507064338 | 55 | 220 | 1.0 | 4.0 | 0.04 | 0.08 | 0.02 | 73 | 1021.1 |
| 20260507063820 | 55 | 204 | 1.0 | 5.0 | 0.08 | 0.08 | 0.02 | 72 | 1021.1 |
| 20260507063314 | 55 | 206 | 2.0 | 9.0 | 0.08 | 0.08 | 0.02 | 73 | 1021.1 |
| 20260507062818 | 55 | 227 | 1.0 | 5.0 | 0.08 | 0.08 | 0.02 | 74 | 1021.0 |
| 20260507062352 | 55 | 211 | 1.0 | 5.0 | 0.08 | 0.08 | 0.02 | 75 | 1021.0 |
| 20260507061825 | 55 | 194 | 2.0 | 5.0 | 0.08 | 0.08 | 0.02 | 75 | 1021.0 |
| 20260507061340 | 55 | 176 | 2.0 | 4.0 | 0.08 | 0.08 | 0.02 | 75 | 1021.0 |
| 20260507060830 | 55 | 221 | 1.0 | 4.0 | 0.04 | 0.04 | 0.01 | 76 | 1021.1 |
| 20260507060400 | 56 | 216 | 2.0 | 4.0 | 0.04 | 0.04 | 0.01 | 75 | 1021.0 |
| 20260507055819 | 56 | 211 | 2.0 | 4.0 | 0.04 | 0.04 | 0.01 | 75 | 1021.0 |
| 20260507055333 | 56 | 219 | 1.0 | 3.0 | 0.04 | 0.04 | 0.01 | 73 | 1020.8 |
| 20260507054839 | 56 | 219 | 0.0 | 1.0 | 0.04 | 0.04 | 0.01 | 73 | 1020.7 |
| 20260507054333 | 56 | 219 | 0.0 | 3.0 | 0.04 | 0.04 | 0.01 | 73 | 1020.7 |
| 20260507053847 | 57 | 219 | 0.0 | 5.0 | 0.00 | 0.00 | 0.00 | 73 | 1020.6 |
| 20260507053341 | 57 | 226 | 1.0 | 5.0 | 0.00 | 0.00 | 0.00 | 73 | 1020.5 |
| 20260507052823 | 57 | 236 | 1.0 | 3.0 | 0.00 | 0.00 | 0.00 | 71 | 1020.4 |
| 20260507052315 | 57 | 247 | 1.0 | 5.0 | 0.00 | 0.00 | 0.00 | 71 | 1020.2 |
| 20260507051829 | 57 | 215 | 1.0 | 5.0 | 0.00 | 0.00 | 0.00 | 72 | 1020.2 |
| 20260507051344 | 57 | 227 | 2.0 | 4.0 | 0.00 | 0.00 | 0.00 | 69 | 1020.2 |
| 20260507050855 | 58 | 270 | 1.0 | 4.0 | 0.00 | 0.00 | 0.00 | 72 | 1020.1 |
| 20260507050320 | 58 | 298 | 2.0 | 4.0 | 0.00 | 0.00 | 0.00 | 69 | 1020.1 |
| 20260507045833 | 58 | 228 | 1.0 | 5.0 | 0.00 | 0.00 | 0.00 | 69 | 1019.9 |
| 20260507045316 | 58 | 222 | 2.0 | 5.0 | 0.00 | 0.00 | 0.00 | 64 | 1019.7 |
| 20260507044842 | 58 | 223 | 1.0 | 4.0 | 0.00 | 0.00 | 0.00 | 65 | 1019.7 |
| 20260507044336 | 58 | 217 | 1.0 | 4.0 | 0.00 | 0.00 | 0.00 | 65 | 1019.5 |
| 20260507043829 | 58 | 207 | 1.0 | 3.0 | 0.00 | 0.00 | 0.00 | 65 | 1019.5 |
| 20260507043315 | 58 | 206 | 0.0 | 3.0 | 0.00 | 0.00 | 0.00 | 65 | 1019.4 |
| 20260507042830 | 58 | 196 | 1.0 | 3.0 | 0.00 | 0.00 | 0.00 | 66 | 1019.4 |
| 20260507042314 | 58 | 170 | 0.0 | 1.0 | 0.00 | 0.00 | 0.00 | 67 | 1019.3 |
| 20260507041848 | 58 | 170 | 0.0 | 1.0 | 0.00 | 0.00 | 0.00 | 67 | 1019.3 |
| 20260507041342 | 58 | 170 | 0.0 | 1.0 | 0.00 | 0.00 | 0.00 | 66 | 1019.2 |
| 20260507040834 | 58 | 170 | 0.0 | 2.0 | 0.00 | 0.00 | 0.00 | 66 | 1019.2 |
| 20260507040320 | 58 | 170 | 1.0 | 2.0 | 0.00 | 0.00 | 0.00 | 65 | 1019.2 |
| 20260507035813 | 58 | 162 | 1.0 | 2.0 | 0.00 | 0.00 | 0.00 | 64 | 1019.1 |
| 20260507035317 | 57 | 157 | 0.0 | 3.0 | 0.00 | 0.00 | 0.00 | 65 | 1019.2 |
| 20260507034818 | 57 | 157 | 0.0 | 3.0 | 0.00 | 0.00 | 0.00 | 65 | 1019.0 |
| 20260507034332 | 57 | 74 | 0.0 | 1.0 | 0.00 | 0.00 | 0.00 | 65 | 1019.1 |
| 20260507033818 | 56 | 74 | 0.0 | 1.0 | 0.00 | 0.00 | 0.00 | 66 | 1019.1 |
| 20260507033352 | 56 | 74 | 0.0 | 2.0 | 0.00 | 0.00 | 0.00 | 68 | 1019.0 |
| 20260507032845 | 56 | 74 | 1.0 | 2.0 | 0.00 | 0.00 | 0.00 | 70 | 1019.0 |
| 20260507032320 | 55 | 73 | 1.0 | 2.0 | 0.00 | 0.00 | 0.00 | 71 | 1019.1 |
| 20260507031823 | 56 | 73 | 0.0 | 2.0 | 0.00 | 0.00 | 0.00 | 72 | 1019.0 |
| 20260507031318 | 56 | 73 | 0.0 | 2.0 | 0.00 | 0.00 | 0.00 | 71 | 1018.9 |
| 20260507030823 | 56 | 73 | 0.0 | 1.0 | 0.00 | 0.00 | 0.00 | 72 | 1019.0 |
| 20260507030316 | 56 | 73 | 0.0 | 1.0 | 0.00 | 0.00 | 0.00 | 71 | 1019.0 |
| 20260507025822 | 56 | 73 | 0.0 | 1.0 | 0.00 | 0.00 | 0.00 | 70 | 1019.0 |
| 20260507025315 | 56 | 73 | 0.0 | 2.0 | 0.00 | 0.00 | 0.00 | 70 | 1018.9 |
| 20260507024820 | 56 | 73 | 0.0 | 2.0 | 0.00 | 0.00 | 0.00 | 69 | 1018.9 |
| 20260507024331 | 57 | 73 | 0.0 | 2.0 | 0.00 | 0.00 | 0.00 | 67 | 1018.8 |
| 20260507023816 | 56 | 73 | 0.0 | 2.0 | 0.00 | 0.00 | 0.00 | 66 | 1018.6 |
| 20260507023328 | 56 | 72 | 0.0 | 3.0 | 0.00 | 0.00 | 0.00 | 68 | 1018.6 |
| 20260507022823 | 56 | 93 | 0.0 | 3.0 | 0.00 | 0.00 | 0.00 | 68 | 1018.6 |
| 20260507022326 | 56 | 93 | 0.0 | 2.0 | 0.00 | 0.00 | 0.00 | 68 | 1018.6 |
| 20260507021819 | 56 | 93 | 0.0 | 2.0 | 0.00 | 0.00 | 0.00 | 69 | 1018.6 |
| 20260507021324 | 56 | 93 | 1.0 | 1.0 | 0.00 | 0.00 | 0.00 | 70 | 1018.6 |
| 20260507020819 | 56 | 93 | 0.0 | 2.0 | 0.00 | 0.00 | 0.00 | 70 | 1018.7 |
| 20260507020335 | 56 | 93 | 1.0 | 2.0 | 0.00 | 0.00 | 0.00 | 70 | 1018.7 |
| 20260507015821 | 56 | 93 | 1.0 | 2.0 | 0.00 | 0.00 | 0.00 | 69 | 1018.7 |
| 20260507015337 | 57 | 93 | 0.0 | 2.0 | 0.00 | 0.00 | 0.00 | 68 | 1018.6 |
| 20260507014815 | 57 | 93 | 1.0 | 2.0 | 0.00 | 0.00 | 0.00 | 66 | 1018.5 |
| 20260507014330 | 57 | 95 | 0.0 | 1.0 | 0.00 | 0.00 | 0.00 | 65 | 1018.5 |
| 20260507013816 | 57 | 95 | 0.0 | 1.0 | 0.00 | 0.00 | 0.00 | 66 | 1018.5 |
| 20260507013330 | 57 | 95 | 0.0 | 1.0 | 0.00 | 0.00 | 0.00 | 64 | 1018.4 |
| 20260507012825 | 57 | 95 | 0.0 | 1.0 | 0.00 | 0.00 | 0.00 | 65 | 1018.4 |
| 20260507012329 | 57 | 95 | 0.0 | 1.0 | 0.00 | 0.00 | 0.00 | 65 | 1018.3 |
| 20260507011824 | 57 | 95 | 0.0 | 2.0 | 0.00 | 0.00 | 0.00 | 65 | 1018.5 |
| 20260507011338 | 57 | 95 | 1.0 | 2.0 | 0.00 | 0.00 | 0.00 | 67 | 1018.4 |
| 20260507010844 | 57 | 95 | 0.0 | 2.0 | 0.00 | 0.00 | 0.00 | 67 | 1018.4 |
| 20260507010318 | 57 | 95 | 1.0 | 2.0 | 0.00 | 0.00 | 0.00 | 67 | 1018.4 |
| 20260507005824 | 56 | 95 | 0.0 | 3.0 | 0.00 | 0.00 | 0.00 | 68 | 1018.2 |
| 20260507005337 | 56 | 95 | 1.0 | 3.0 | 0.00 | 0.00 | 0.00 | 68 | 1018.2 |
| 20260507004818 | 56 | 94 | 0.0 | 1.0 | 0.00 | 0.00 | 0.00 | 69 | 1018.4 |
| 20260507004330 | 56 | 94 | 0.0 | 2.0 | 0.00 | 0.00 | 0.00 | 69 | 1018.4 |
| 20260507003844 | 56 | 94 | 1.0 | 2.0 | 0.00 | 0.00 | 0.00 | 69 | 1018.4 |
| 20260507003338 | 56 | 94 | 1.0 | 3.0 | 0.00 | 0.00 | 0.00 | 69 | 1018.3 |
| 20260507002823 | 56 | 94 | 1.0 | 3.0 | 0.00 | 0.00 | 0.00 | 69 | 1018.2 |
| 20260507002337 | 56 | 124 | 1.0 | 2.0 | 0.00 | 0.00 | 0.00 | 69 | 1018.2 |
| 20260507001822 | 56 | 125 | 0.0 | 2.0 | 0.00 | 0.00 | 0.00 | 69 | 1018.2 |
| 20260507001337 | 56 | 125 | 1.0 | 2.0 | 0.00 | 0.00 | 0.00 | 69 | 1018.2 |
| 20260507000831 | 56 | 125 | 0.0 | 4.0 | 0.00 | 0.00 | 0.00 | 69 | 1018.1 |
| 20260507000316 | 56 | 125 | 1.0 | 4.0 | 0.00 | 0.00 | 0.00 | 69 | 1018.1 |
| 20260506235832 | 57 | 136 | 2.0 | 3.0 | 0.00 | 0.00 | 0.00 | 69 | 1018.2 |
| 20260506235317 | 57 | 176 | 1.0 | 3.0 | 0.00 | 0.00 | 0.00 | 69 | 1018.2 |
| 20260506234853 | 57 | 178 | 0.0 | 0.0 | 0.00 | 0.00 | 0.00 | 69 | 1018.2 |
| 20260506234316 | 57 | 178 | 0.0 | 0.0 | 0.00 | 0.00 | 0.00 | 69 | 1018.2 |
| 20260506233831 | 56 | 178 | 0.0 | 0.0 | 0.00 | 0.00 | 0.00 | 69 | 1018.2 |
| 20260506233318 | 56 | 178 | 0.0 | 2.0 | 0.00 | 0.00 | 0.00 | 70 | 1018.1 |
| 20260506232829 | 56 | 178 | 1.0 | 2.0 | 0.00 | 0.00 | 0.00 | 70 | 1018.2 |
| 20260506232324 | 56 | 211 | 1.0 | 2.0 | 0.00 | 0.00 | 0.00 | 71 | 1018.2 |
| 20260506231857 | 56 | 212 | 0.0 | 1.0 | 0.00 | 0.00 | 0.00 | 70 | 1018.2 |
| 20260506231321 | 57 | 212 | 0.0 | 2.0 | 0.00 | 0.00 | 0.00 | 69 | 1018.3 |
| 20260506230834 | 57 | 212 | 0.0 | 2.0 | 0.00 | 0.00 | 0.00 | 68 | 1018.3 |
| 20260506230340 | 58 | 211 | 0.0 | 2.0 | 0.00 | 0.00 | 0.00 | 67 | 1018.2 |
| 20260506225831 | 58 | 211 | 1.0 | 2.0 | 0.00 | 0.00 | 0.00 | 67 | 1018.2 |
| 20260506225327 | 57 | 211 | 0.0 | 1.0 | 0.00 | 0.00 | 0.00 | 67 | 1018.1 |
| 20260506224825 | 57 | 211 | 0.0 | 0.0 | 0.00 | 0.00 | 0.00 | 68 | 1018.1 |
| 20260506224318 | 58 | 211 | 0.0 | 0.0 | 0.00 | 0.00 | 0.00 | 68 | 1018.2 |
| 20260506223831 | 58 | 211 | 0.0 | 1.0 | 0.00 | 0.00 | 0.00 | 67 | 1018.2 |
| 20260506223341 | 58 | 211 | 0.0 | 2.0 | 0.00 | 0.00 | 0.00 | 67 | 1018.2 |
| 20260506222846 | 58 | 211 | 0.0 | 2.0 | 0.00 | 0.00 | 0.00 | 66 | 1018.1 |
| 20260506222319 | 58 | 211 | 1.0 | 2.0 | 0.00 | 0.00 | 0.00 | 66 | 1018.1 |
| 20260506221833 | 58 | 211 | 0.0 | 2.0 | 0.00 | 0.00 | 0.00 | 67 | 1018.1 |
| 20260506221314 | 58 | 211 | 0.0 | 1.0 | 0.00 | 0.00 | 0.00 | 66 | 1018.1 |
| 20260506220843 | 58 | 211 | 0.0 | 1.0 | 0.00 | 0.00 | 0.00 | 66 | 1018.1 |
| 20260506220317 | 59 | 211 | 0.0 | 3.0 | 0.00 | 0.00 | 0.00 | 66 | 1018.1 |
| 20260506215821 | 58 | 212 | 1.0 | 5.0 | 0.00 | 0.00 | 0.00 | 66 | 1018.2 |
| 20260506215316 | 58 | 189 | 2.0 | 5.0 | 0.00 | 0.00 | 0.00 | 66 | 1018.2 |
| 20260506214823 | 58 | 194 | 0.0 | 1.0 | 0.00 | 0.00 | 0.00 | 67 | 1018.1 |
| 20260506214328 | 58 | 195 | 0.0 | 2.0 | 0.00 | 0.00 | 0.00 | 67 | 1018.2 |
| 20260506213821 | 58 | 195 | 0.0 | 2.0 | 0.00 | 0.00 | 0.00 | 66 | 1018.2 |
| 20260506213335 | 59 | 175 | 0.0 | 2.0 | 0.00 | 0.00 | 0.00 | 65 | 1018.2 |
| 20260506212850 | 59 | 173 | 0.0 | 1.0 | 0.00 | 0.00 | 0.00 | 64 | 1018.0 |
| 20260506212333 | 59 | 173 | 0.0 | 1.0 | 0.00 | 0.00 | 0.00 | 64 | 1018.0 |
| 20260506211826 | 59 | 173 | 0.0 | 1.0 | 0.00 | 0.00 | 0.00 | 64 | 1018.1 |
| 20260506211342 | 59 | 173 | 0.0 | 1.0 | 0.00 | 0.00 | 0.00 | 64 | 1018.1 |
| 20260506210836 | 59 | 173 | 0.0 | 0.0 | 0.00 | 0.00 | 0.00 | 64 | 1018.0 |
| 20260506210320 | 59 | 173 | 0.0 | 2.0 | 0.00 | 0.00 | 0.00 | 64 | 1018.1 |
| 20260506205830 | 59 | 182 | 0.0 | 1.0 | 0.00 | 0.00 | 0.00 | 65 | 1018.1 |
| 20260506205345 | 58 | 182 | 0.0 | 1.0 | 0.00 | 0.00 | 0.00 | 65 | 1018.2 |
| 20260506204831 | 58 | 182 | 1.0 | 1.0 | 0.00 | 0.00 | 0.00 | 66 | 1018.3 |
| 20260506204317 | 59 | 182 | 0.0 | 0.0 | 0.00 | 0.00 | 0.00 | 65 | 1018.1 |
| 20260506203832 | 59 | 182 | 0.0 | 0.0 | 0.00 | 0.00 | 0.00 | 65 | 1018.0 |
| 20260506203317 | 59 | 182 | 0.0 | 1.0 | 0.00 | 0.00 | 0.00 | 65 | 1018.0 |
| 20260506202832 | 59 | 182 | 0.0 | 1.0 | 0.00 | 0.00 | 0.00 | 64 | 1018.2 |
| 20260506202317 | 59 | 182 | 0.0 | 0.0 | 0.00 | 0.00 | 0.00 | 64 | 1018.1 |
| 20260506201834 | 59 | 182 | 0.0 | 0.0 | 0.00 | 0.00 | 0.00 | 64 | 1018.2 |
| 20260506201319 | 59 | 182 | 0.0 | 1.0 | 0.00 | 0.00 | 0.00 | 64 | 1018.3 |
| 20260506200854 | 59 | 182 | 0.0 | 1.0 | 0.00 | 0.00 | 0.00 | 64 | 1018.2 |
| 20260506200326 | 59 | 182 | 0.0 | 0.0 | 0.00 | 0.00 | 0.00 | 64 | 1018.2 |
| 20260506195832 | 59 | 182 | 0.0 | 0.0 | 0.00 | 0.00 | 0.00 | 64 | 1018.2 |
| 20260506195324 | 60 | 182 | 0.0 | 0.0 | 0.00 | 0.00 | 0.00 | 63 | 1018.2 |
| 20260506194852 | 60 | 182 | 0.0 | 1.0 | 0.00 | 0.00 | 0.00 | 63 | 1018.2 |
| 20260506194316 | 60 | 182 | 0.0 | 1.0 | 0.00 | 0.00 | 0.00 | 62 | 1018.2 |
| 20260506193831 | 61 | 182 | 0.0 | 0.0 | 0.00 | 0.00 | 0.00 | 61 | 1018.1 |
| 20260506193324 | 61 | 182 | 0.0 | 0.0 | 0.00 | 0.00 | 0.00 | 60 | 1018.2 |
| 20260506192833 | 61 | 182 | 0.0 | 0.0 | 0.00 | 0.00 | 0.00 | 60 | 1018.2 |
| 20260506192319 | 61 | 182 | 0.0 | 2.0 | 0.00 | 0.00 | 0.00 | 59 | 1018.2 |
| 20260506191855 | 61 | 182 | 0.0 | 2.0 | 0.00 | 0.00 | 0.00 | 59 | 1018.2 |
| 20260506191321 | 62 | 288 | 0.0 | 2.0 | 0.00 | 0.00 | 0.00 | 58 | 1018.2 |
| 20260506190816 | 62 | 301 | 1.0 | 2.0 | 0.00 | 0.00 | 0.00 | 58 | 1018.1 |
| 20260506190331 | 62 | 301 | 0.0 | 2.0 | 0.00 | 0.00 | 0.00 | 58 | 1018.1 |
| 20260506185816 | 62 | 301 | 0.0 | 3.0 | 0.00 | 0.00 | 0.00 | 58 | 1018.1 |
| 20260506185329 | 62 | 301 | 1.0 | 3.0 | 0.00 | 0.00 | 0.00 | 57 | 1018.0 |
| 20260506184815 | 62 | 298 | 1.0 | 5.0 | 0.00 | 0.00 | 0.00 | 57 | 1017.8 |
| 20260506184329 | 62 | 327 | 3.0 | 5.0 | 0.00 | 0.00 | 0.00 | 57 | 1017.8 |
| 20260506183834 | 62 | 30 | 0.0 | 4.0 | 0.00 | 0.00 | 0.00 | 56 | 1017.7 |
| 20260506183330 | 63 | 29 | 1.0 | 4.0 | 0.00 | 0.00 | 0.00 | 56 | 1017.6 |
| 20260506182815 | 63 | 321 | 1.0 | 4.0 | 0.00 | 0.00 | 0.00 | 55 | 1017.6 |
| 20260506182331 | 63 | 277 | 1.0 | 3.0 | 0.00 | 0.00 | 0.00 | 55 | 1017.6 |
| 20260506181845 | 63 | 252 | 2.0 | 5.0 | 0.00 | 0.00 | 0.00 | 55 | 1017.6 |
| 20260506181336 | 63 | 217 | 0.0 | 5.0 | 0.00 | 0.00 | 0.00 | 54 | 1017.5 |
| 20260506180823 | 63 | 220 | 1.0 | 3.0 | 0.00 | 0.00 | 0.00 | 54 | 1017.4 |
| 20260506180332 | 63 | 66 | 2.0 | 3.0 | 0.00 | 0.00 | 0.00 | 54 | 1017.3 |
| 20260506175817 | 64 | 69 | 1.0 | 3.0 | 0.00 | 0.00 | 0.00 | 53 | 1017.3 |
| 20260506175352 | 64 | 117 | 0.0 | 4.0 | 0.00 | 0.00 | 0.00 | 53 | 1017.3 |
| 20260506174819 | 64 | 198 | 0.0 | 2.0 | 0.00 | 0.00 | 0.00 | 52 | 1017.3 |
| 20260506174324 | 64 | 200 | 1.0 | 3.0 | 0.00 | 0.00 | 0.00 | 52 | 1017.1 |
| 20260506173838 | 64 | 200 | 1.0 | 3.0 | 0.00 | 0.00 | 0.00 | 52 | 1017.1 |
| 20260506173353 | 64 | 247 | 0.0 | 4.0 | 0.00 | 0.00 | 0.00 | 52 | 1017.0 |
| 20260506172847 | 64 | 246 | 1.0 | 4.0 | 0.00 | 0.00 | 0.00 | 51 | 1017.0 |
| 20260506172341 | 64 | 303 | 0.0 | 3.0 | 0.00 | 0.00 | 0.00 | 51 | 1017.0 |
| 20260506171826 | 64 | 301 | 1.0 | 8.0 | 0.00 | 0.00 | 0.00 | 50 | 1017.0 |
| 20260506171340 | 64 | 308 | 2.0 | 8.0 | 0.00 | 0.00 | 0.00 | 50 | 1017.0 |
| 20260506170832 | 65 | 273 | 3.0 | 10.0 | 0.00 | 0.00 | 0.00 | 48 | 1016.9 |
| 20260506170317 | 66 | 282 | 5.0 | 10.0 | 0.00 | 0.00 | 0.00 | 47 | 1016.9 |
| 20260506165832 | 66 | 182 | 3.0 | 9.0 | 0.00 | 0.00 | 0.00 | 46 | 1016.9 |
| 20260506165318 | 67 | 290 | 2.0 | 8.0 | 0.00 | 0.00 | 0.00 | 46 | 1016.8 |
| 20260506164819 | 67 | 290 | 4.0 | 14.0 | 0.00 | 0.00 | 0.00 | 46 | 1016.8 |
| 20260506164334 | 67 | 286 | 2.0 | 14.0 | 0.00 | 0.00 | 0.00 | 46 | 1016.8 |
| 20260506163820 | 68 | 244 | 3.0 | 9.0 | 0.00 | 0.00 | 0.00 | 46 | 1016.6 |
| 20260506163332 | 69 | 252 | 3.0 | 9.0 | 0.00 | 0.00 | 0.00 | 46 | 1016.6 |
| 20260506162849 | 69 | 211 | 4.0 | 13.0 | 0.00 | 0.00 | 0.00 | 46 | 1016.5 |
| 20260506162321 | 70 | 147 | 5.0 | 13.0 | 0.00 | 0.00 | 0.00 | 45 | 1016.6 |
| 20260506161827 | 71 | 225 | 4.0 | 11.0 | 0.00 | 0.00 | 0.00 | 45 | 1016.5 |
| 20260506161322 | 71 | 229 | 3.0 | 12.0 | 0.00 | 0.00 | 0.00 | 46 | 1016.4 |
| 20260506160857 | 71 | 277 | 5.0 | 12.0 | 0.00 | 0.00 | 0.00 | 46 | 1016.3 |
| 20260506160322 | 71 | 252 | 4.0 | 11.0 | 0.00 | 0.00 | 0.00 | 45 | 1016.3 |
| 20260506155818 | 72 | 275 | 4.0 | 13.0 | 0.00 | 0.00 | 0.00 | 44 | 1016.3 |
| 20260506155322 | 73 | 263 | 4.0 | 8.0 | 0.00 | 0.00 | 0.00 | 42 | 1016.3 |
| 20260506154830 | 73 | 284 | 2.0 | 8.0 | 0.00 | 0.00 | 0.00 | 42 | 1016.2 |
| 20260506154326 | 73 | 217 | 3.0 | 8.0 | 0.00 | 0.00 | 0.00 | 42 | 1016.3 |
| 20260506153839 | 72 | 200 | 2.0 | 11.0 | 0.00 | 0.00 | 0.00 | 41 | 1016.2 |
| 20260506153344 | 73 | 200 | 5.0 | 11.0 | 0.00 | 0.00 | 0.00 | 41 | 1016.1 |
| 20260506152817 | 73 | 251 | 2.0 | 10.0 | 0.00 | 0.00 | 0.00 | 41 | 1016.2 |
| 20260506152317 | 73 | 314 | 3.0 | 10.0 | 0.00 | 0.00 | 0.00 | 41 | 1016.1 |
| 20260506151831 | 73 | 218 | 3.0 | 8.0 | 0.00 | 0.00 | 0.00 | 40 | 1016.1 |
| 20260506151323 | 74 | 239 | 1.0 | 5.0 | 0.00 | 0.00 | 0.00 | 41 | 1016.2 |
| 20260506150829 | 74 | 210 | 2.0 | 11.0 | 0.00 | 0.00 | 0.00 | 40 | 1016.2 |
| 20260506150322 | 74 | 321 | 4.0 | 11.0 | 0.00 | 0.00 | 0.00 | 39 | 1016.3 |
| 20260506145837 | 75 | 242 | 3.0 | 11.0 | 0.00 | 0.00 | 0.00 | 39 | 1016.1 |
| 20260506145321 | 75 | 252 | 5.0 | 11.0 | 0.00 | 0.00 | 0.00 | 38 | 1016.2 |
| 20260506144827 | 75 | 217 | 3.0 | 10.0 | 0.00 | 0.00 | 0.00 | 39 | 1016.2 |
| 20260506144321 | 75 | 184 | 4.0 | 9.0 | 0.00 | 0.00 | 0.00 | 39 | 1016.3 |
| 20260506143826 | 75 | 335 | 3.0 | 9.0 | 0.00 | 0.00 | 0.00 | 38 | 1016.4 |
| 20260506143321 | 76 | 205 | 3.0 | 10.0 | 0.00 | 0.00 | 0.00 | 38 | 1016.4 |
| 20260506142836 | 76 | 257 | 4.0 | 10.0 | 0.00 | 0.00 | 0.00 | 38 | 1016.4 |
| 20260506142319 | 76 | 254 | 3.0 | 8.0 | 0.00 | 0.00 | 0.00 | 38 | 1016.4 |
| 20260506141833 | 74 | 202 | 2.0 | 8.0 | 0.00 | 0.00 | 0.00 | 39 | 1016.4 |
| 20260506141347 | 74 | 208 | 3.0 | 7.0 | 0.00 | 0.00 | 0.00 | 40 | 1016.4 |
| 20260506140831 | 74 | 160 | 4.0 | 7.0 | 0.00 | 0.00 | 0.00 | 40 | 1016.5 |
| 20260506140327 | 74 | 232 | 1.0 | 7.0 | 0.00 | 0.00 | 0.00 | 39 | 1016.5 |
| 20260506135838 | 75 | 219 | 4.0 | 8.0 | 0.00 | 0.00 | 0.00 | 38 | 1016.5 |
| 20260506135322 | 75 | 205 | 3.0 | 8.0 | 0.00 | 0.00 | 0.00 | 38 | 1016.4 |
| 20260506134828 | 75 | 133 | 4.0 | 11.0 | 0.00 | 0.00 | 0.00 | 38 | 1016.5 |
| 20260506134323 | 75 | 88 | 6.0 | 12.0 | 0.00 | 0.00 | 0.00 | 39 | 1016.4 |
| 20260506133858 | 74 | 212 | 6.0 | 10.0 | 0.00 | 0.00 | 0.00 | 38 | 1016.4 |
| 20260506133321 | 74 | 250 | 3.0 | 6.0 | 0.00 | 0.00 | 0.00 | 38 | 1016.6 |
| 20260506132835 | 74 | 318 | 1.0 | 8.0 | 0.00 | 0.00 | 0.00 | 38 | 1016.6 |
| 20260506132321 | 75 | 323 | 3.0 | 10.0 | 0.00 | 0.00 | 0.00 | 38 | 1016.6 |
| 20260506131836 | 75 | 274 | 2.0 | 7.0 | 0.00 | 0.00 | 0.00 | 38 | 1016.6 |
| 20260506131320 | 75 | 238 | 2.0 | 5.0 | 0.00 | 0.00 | 0.00 | 38 | 1016.6 |
| 20260506130834 | 74 | 115 | 2.0 | 5.0 | 0.00 | 0.00 | 0.00 | 39 | 1016.7 |
| 20260506130328 | 74 | 288 | 2.0 | 7.0 | 0.00 | 0.00 | 0.00 | 38 | 1016.8 |
| 20260506125903 | 74 | 340 | 3.0 | 12.0 | 0.00 | 0.00 | 0.00 | 38 | 1016.8 |
| 20260506125357 | 74 | 257 | 7.0 | 12.0 | 0.00 | 0.00 | 0.00 | 38 | 1016.8 |
| 20260506124832 | 74 | 252 | 5.0 | 8.0 | 0.00 | 0.00 | 0.00 | 39 | 1016.8 |
| 20260506124339 | 74 | 315 | 4.0 | 8.0 | 0.00 | 0.00 | 0.00 | 40 | 1016.9 |
| 20260506123834 | 73 | 239 | 2.0 | 11.0 | 0.00 | 0.00 | 0.00 | 39 | 1017.0 |
| 20260506123320 | 74 | 238 | 5.0 | 11.0 | 0.00 | 0.00 | 0.00 | 40 | 1017.1 |
| 20260506122854 | 74 | 298 | 2.0 | 11.0 | 0.00 | 0.00 | 0.00 | 39 | 1017.1 |
| 20260506122327 | 74 | 223 | 5.0 | 11.0 | 0.00 | 0.00 | 0.00 | 39 | 1017.3 |
| 20260506121842 | 74 | 133 | 2.0 | 8.0 | 0.00 | 0.00 | 0.00 | 40 | 1017.3 |
| 20260506121326 | 73 | 197 | 3.0 | 7.0 | 0.00 | 0.00 | 0.00 | 40 | 1017.3 |
| 20260506120822 | 73 | 233 | 3.0 | 11.0 | 0.00 | 0.00 | 0.00 | 40 | 1017.2 |
| 20260506120326 | 73 | 261 | 4.0 | 11.0 | 0.00 | 0.00 | 0.00 | 40 | 1017.4 |
| 20260506115841 | 73 | 98 | 5.0 | 11.0 | 0.00 | 0.00 | 0.00 | 41 | 1017.3 |
| 20260506115336 | 72 | 223 | 3.0 | 9.0 | 0.00 | 0.00 | 0.00 | 42 | 1017.4 |
| 20260506114842 | 72 | 319 | 1.0 | 9.0 | 0.00 | 0.00 | 0.00 | 40 | 1017.5 |
| 20260506114324 | 73 | 290 | 3.0 | 5.0 | 0.00 | 0.00 | 0.00 | 41 | 1017.5 |